[[{"header":{"parameterUnit":"m.s-1","parameterCategory":1,"la1":30.2991,"la2":30.254,"lo1":-89.0895,"lo2":-89.0444,"dy":0.0017,"dx":0.0017,"nx":28,"ny":28,"refTime":"2024-04-15T09:00:00:Z","depth":0,"parameterNumber":2,"parameterNumberName":"U-component_of_WINDS"},"data":[0,0,0,0,0,0,0,0,0,0,0,0,0,0,0,0,0,0,0,0,0,0,0,0,0,0,0,0,0,0,0,0,0,0,0,0,0,0,0,0,0,0,0,0,0,0,0,0,0,0,0,0,0,0,0,0,0,0,-0.4498,-0.4498,0,-0.4519,-0.4519,-0.4519,-0.4528,-0.4528,-0.4528,-0.4528,-0.4551,-0.4552,-0.4552,0,0,0,0,0,0,0,0,0,0,0,0,0,-0.4467,-0.4467,-0.4498,-0.4498,-0.4498,-0.4519,-0.4519,-0.4519,-0.4528,-0.4528,-0.4528,-0.4528,-0.4551,-0.4552,-0.4552,0,0,0,0,0,0,0,0,0,0,0,0,0,-0.4483,-0.4467,-0.4498,-0.4505,-0.4506,-0.4519,-0.4519,-0.4519,-0.4528,-0.4528,-0.4528,-0.4528,-0.4551,-0.4552,-0.4553,-0.4559,0,0,-0.4555,-0.4556,0,0,0,0,0,0,0,0,-0.4482,-0.4484,-0.4504,-0.4505,-0.4506,-0.4521,-0.4516,-0.4533,-0.4528,-0.452,-0.4528,-0.4528,-0.4541,-0.4543,-0.4547,-0.4561,-0.4562,-0.4556,-0.4556,-0.4557,-0.4557,0,0,0,0,0,0,0,-0.4481,-0.4484,-0.4506,-0.4504,-0.4505,-0.4508,-0.451,-0.452,-0.4531,-0.4521,-0.4521,-0.4524,-0.4542,-0.4546,-0.4548,-0.4562,-0.4556,-0.4556,-0.4557,-0.4557,-0.4583,-0.4583,0,0,0,0,0,0,-0.4479,-0.4483,-0.4505,-0.4507,-0.4494,-0.4509,-0.4511,-0.4516,-0.4531,-0.4533,-0.4524,-0.4524,-0.4544,-0.4546,-0.4548,-0.4558,-0.4557,-0.4557,-0.4558,-0.4583,-0.4583,-0.4583,0,0,0,0,0,0,-0.4478,-0.4481,-0.4504,-0.4495,-0.4498,-0.4509,-0.4515,-0.4516,-0.4521,-0.4533,-0.4535,-0.4526,-0.4545,-0.4547,-0.4557,-0.4559,-0.4558,-0.4559,-0.4583,-0.4583,-0.4583,-0.4577,0,0,0,0,0,0,-0.4477,-0.448,-0.4483,-0.4495,-0.4498,-0.4512,-0.4515,-0.4517,-0.4522,-0.4523,-0.4536,-0.4538,-0.4545,-0.4555,-0.4558,-0.456,-0.4559,-0.4582,-0.4583,-0.4583,-0.4577,-0.4576,-0.4576,0,0,0,0,0,-0.4476,-0.448,-0.4483,-0.4485,-0.4502,-0.4512,-0.4514,-0.4522,-0.4522,-0.4525,-0.4533,-0.4537,-0.4558,-0.4556,-0.4559,-0.4562,-0.4582,-0.4583,-0.4583,-0.4577,-0.4577,-0.4576,0,0,0,0,0,0,-0.4468,-0.4482,-0.4485,-0.4493,-0.4501,-0.4513,-0.4517,-0.4521,-0.453,-0.453,-0.454,-0.4542,-0.4551,-0.4557,-0.4555,-0.457,-0.4571,-0.4572,-0.4565,-0.4565,-0.4565,-0.4563,-0.456,0,0,0,0,0,-0.4467,-0.4474,-0.4486,-0.4492,-0.4496,-0.4506,-0.4511,-0.4516,-0.4525,-0.4529,-0.4537,-0.4546,-0.4555,-0.456,-0.4569,-0.4578,-0.4581,-0.4581,-0.4581,-0.4581,-0.4581,-0.4587,-0.4587,-0.4584,-0.4584,-0.4584,0,0,-0.4466,-0.4474,-0.4478,-0.4491,-0.4498,-0.4505,-0.4509,-0.4516,-0.4522,-0.453,-0.4539,-0.4546,-0.4557,-0.4566,-0.4571,-0.4572,-0.4583,-0.4581,-0.4581,-0.4581,-0.4587,-0.4588,-0.4588,-0.4584,-0.4584,-0.4584,0,0,-0.4467,-0.4474,-0.448,-0.4487,-0.4497,-0.4504,-0.4505,-0.4517,-0.4522,-0.4531,-0.4537,-0.4545,-0.4559,-0.4567,-0.4572,-0.4577,-0.4581,-0.458,-0.4579,-0.4584,-0.4585,-0.4585,-0.4587,-0.4587,-0.458,-0.458,-0.458,0,-0.4464,-0.4475,-0.4482,-0.449,-0.4495,-0.4503,-0.4509,-0.4516,-0.4529,-0.4533,-0.4533,-0.4552,-0.456,-0.4571,-0.4572,-0.4577,-0.4579,-0.4578,-0.4584,-0.4584,-0.4585,-0.4587,-0.4587,-0.458,-0.458,-0.458,-0.458,0,-0.4471,-0.4478,-0.4482,-0.4494,-0.45,-0.4507,-0.4516,-0.4522,-0.4526,-0.4533,-0.4543,-0.4553,-0.4564,-0.4567,-0.4572,-0.4579,-0.4579,-0.4582,-0.4583,-0.4584,-0.4587,-0.4587,-0.4579,-0.458,-0.458,-0.458,0,0,-0.4467,-0.4484,-0.4485,-0.4491,-0.4503,-0.4509,-0.4517,-0.4527,-0.4532,-0.454,-0.4547,-0.456,-0.4562,-0.4569,-0.4574,-0.4579,-0.4583,-0.4581,-0.4582,-0.4581,-0.4592,-0.459,-0.4591,-0.4586,-0.4586,-0.4586,-0.4591,0,-0.447,-0.4484,-0.4491,-0.4501,-0.4509,-0.4516,-0.4522,-0.4531,-0.4538,-0.4545,-0.4553,-0.4561,-0.4564,-0.4568,-0.4573,-0.4581,-0.4585,-0.4581,-0.4593,-0.4593,-0.459,-0.4592,-0.459,-0.4595,-0.4592,-0.4592,-0.4592,0,-0.4476,-0.4484,-0.4495,-0.4507,-0.451,-0.4516,-0.4526,-0.4533,-0.4543,-0.4548,-0.4555,-0.4561,-0.457,-0.4571,-0.4583,-0.458,-0.4586,-0.459,-0.4591,-0.4592,-0.4593,-0.4594,-0.4596,-0.4597,-0.4594,-0.4594,-0.4593,0,-0.4472,-0.4486,-0.4495,-0.45,-0.4513,-0.4517,-0.4523,-0.4533,-0.4539,-0.4549,-0.4553,-0.4563,-0.4569,-0.4577,-0.4585,-0.4585,-0.4597,-0.4599,-0.4602,-0.4602,-0.4604,-0.4604,-0.4607,-0.4607,-0.4607,-0.4607,-0.4607,0,-0.4475,-0.4481,-0.4494,-0.4499,-0.4507,-0.4515,-0.4523,-0.453,-0.4539,-0.4546,-0.4553,-0.4559,-0.457,-0.4579,-0.4586,-0.4595,-0.4598,-0.4602,-0.4604,-0.4602,-0.4601,-0.4605,-0.4605,-0.4607,-0.4607,-0.4607,-0.4607,0,-0.4473,-0.4481,-0.4491,-0.4503,-0.4506,-0.4512,-0.4523,-0.4528,-0.4535,-0.4544,-0.4547,-0.4558,-0.4568,-0.4578,-0.4591,-0.4596,-0.4606,-0.4608,-0.4602,-0.4603,-0.4606,-0.4606,-0.4613,-0.4614,-0.4613,-0.4613,-0.4613,0,-0.4474,-0.4479,-0.4492,-0.4497,-0.4503,-0.4511,-0.4517,-0.4526,-0.4532,-0.4544,-0.4549,-0.4559,-0.4568,-0.4584,-0.4594,-0.4604,-0.4607,-0.4609,-0.4608,-0.4606,-0.4607,-0.4607,-0.4608,-0.4608,-0.4608,-0.4608,-0.4608,0,-0.4475,-0.4479,-0.4487,-0.4497,-0.4504,-0.4512,-0.4521,-0.4524,-0.4535,-0.4542,-0.4552,-0.4559,-0.4573,-0.4583,-0.4595,-0.4602,-0.4607,-0.4608,-0.461,-0.4607,-0.4604,-0.4606,-0.4602,-0.4608,-0.4608,-0.4608,-0.4608,-0.4608,-0.4475,-0.448,-0.449,-0.4499,-0.4506,-0.4514,-0.452,-0.4528,-0.4536,-0.4548,-0.4553,-0.4563,-0.4574,-0.459,-0.4597,-0.4606,-0.4607,-0.4609,-0.461,-0.461,-0.461,-0.4602,-0.4608,-0.4608,-0.4608,-0.4608,-0.4608,0,-0.4477,-0.4483,-0.4492,-0.4503,-0.451,-0.4514,-0.4524,-0.453,-0.4539,-0.4548,-0.4557,-0.4569,-0.4579,-0.459,-0.4601,-0.4606,-0.4609,-0.4609,-0.4609,-0.461,-0.4608,-0.4606,-0.4607,-0.4607,-0.4607,-0.4607,-0.4607,-0.4607,-0.4478,-0.4487,-0.4492,-0.4505,-0.4512,-0.4522,-0.4528,-0.4535,-0.4543,-0.4556,-0.4564,-0.4571,-0.4581,-0.4593,-0.4603,-0.4606,-0.461,-0.4609,-0.4613,-0.461,-0.461,-0.4611,-0.4609,-0.461,-0.461,-0.4615,-0.4615,-0.4615]},{"header":{"parameterUnit":"m.s-1","parameterCategory":1,"la1":30.2991,"la2":30.254,"lo1":-89.0895,"lo2":-89.0444,"dy":0.0017,"dx":0.0017,"nx":28,"ny":28,"refTime":"2024-04-15T09:00:00:Z","depth":0,"parameterNumber":3,"parameterNumberName":"V-component_of_WINDS"},"data":[0,0,0,0,0,0,0,0,0,0,0,0,0,0,0,0,0,0,0,0,0,0,0,0,0,0,0,0,0,0,0,0,0,0,0,0,0,0,0,0,0,0,0,0,0,0,0,0,0,0,0,0,0,0,0,0,0,0,3.105,3.1052,0,3.1175,3.1177,3.1178,3.1163,3.1161,3.1158,3.1157,3.1284,3.1289,3.1294,0,0,0,0,0,0,0,0,0,0,0,0,0,3.0797,3.0802,3.105,3.1052,3.1053,3.1175,3.1177,3.1178,3.1163,3.116,3.1158,3.1156,3.1282,3.1288,3.1295,0,0,0,0,0,0,0,0,0,0,0,0,0,3.0913,3.0803,3.105,3.106,3.1063,3.1175,3.1177,3.1179,3.1163,3.116,3.1157,3.1154,3.128,3.1288,3.1296,3.1405,0,0,3.132,3.1323,0,0,0,0,0,0,0,0,3.0906,3.0922,3.1057,3.106,3.1062,3.115,3.1134,3.1255,3.1164,3.1125,3.1157,3.1153,3.1242,3.1253,3.1283,3.1411,3.1417,3.1321,3.1325,3.1329,3.1331,0,0,0,0,0,0,0,3.0898,3.0917,3.11,3.1059,3.1062,3.1058,3.1071,3.1157,3.1199,3.1128,3.1127,3.1142,3.1243,3.1275,3.1286,3.1419,3.132,3.1327,3.1332,3.1335,3.1641,3.1645,0,0,0,0,0,0,3.0888,3.091,3.1096,3.1103,3.0975,3.1065,3.108,3.1125,3.1198,3.1206,3.1145,3.1141,3.1263,3.1276,3.129,3.1422,3.1329,3.1336,3.1341,3.1638,3.1642,3.1646,0,0,0,0,0,0,3.0882,3.0904,3.1091,3.1007,3.103,3.1073,3.1124,3.1129,3.1162,3.1211,3.1218,3.1171,3.1261,3.1279,3.1376,3.1426,3.134,3.1347,3.1634,3.1639,3.1644,3.1688,0,0,0,0,0,0,3.0875,3.0903,3.0945,3.1008,3.1035,3.1176,3.1127,3.1134,3.1175,3.1172,3.1237,3.1244,3.126,3.1365,3.1384,3.1436,3.1353,3.163,3.1636,3.1642,3.1682,3.1694,3.1704,0,0,0,0,0,3.0866,3.0953,3.0948,3.097,3.1089,3.1179,3.1194,3.1211,3.118,3.1222,3.1253,3.1242,3.1418,3.1375,3.1397,3.1451,3.1627,3.1635,3.1642,3.1677,3.1691,3.1703,0,0,0,0,0,0,3.0896,3.0961,3.0956,3.1066,3.1117,3.1176,3.1231,3.1225,3.1286,3.128,3.1298,3.1313,3.1411,3.1441,3.1392,3.156,3.1518,3.153,3.1537,3.1551,3.1562,3.1552,3.136,0,0,0,0,0,3.0915,3.0983,3.1036,3.1128,3.1154,3.1188,3.1227,3.1236,3.1289,3.1311,3.1349,3.1401,3.1467,3.1511,3.1575,3.1686,3.1699,3.1734,3.1745,3.1754,3.1764,3.1823,3.1839,3.1671,3.1671,3.1671,0,0,3.0956,3.1,3.1042,3.1135,3.1175,3.1244,3.1206,3.1281,3.1332,3.1322,3.1416,3.1446,3.1505,3.1609,3.1657,3.1637,3.1813,3.1763,3.177,3.1776,3.1833,3.1848,3.1863,3.1676,3.1675,3.1674,0,0,3.1065,3.1106,3.1185,3.1226,3.1288,3.1309,3.1328,3.1388,3.1407,3.1502,3.1495,3.1556,3.1671,3.1713,3.1749,3.1872,3.1863,3.1892,3.1948,3.2006,3.2019,3.2031,3.2073,3.2089,3.1902,3.1903,3.1903,0,3.1107,3.1211,3.1227,3.1303,3.1343,3.1337,3.1417,3.1456,3.1535,3.1563,3.154,3.1682,3.1722,3.1835,3.1865,3.1895,3.1916,3.1885,3.2016,3.2028,3.2039,3.208,3.2096,3.1906,3.1905,3.1905,3.1905,0,3.126,3.1332,3.1389,3.1465,3.1512,3.159,3.1616,3.1662,3.1666,3.169,3.1785,3.1832,3.1905,3.1932,3.1937,3.2046,3.2031,3.2012,3.197,3.2058,3.2096,3.2112,3.191,3.1909,3.1908,3.1907,0,0,3.1392,3.1474,3.1495,3.1529,3.1595,3.1651,3.1727,3.1798,3.1836,3.1891,3.1955,3.2051,3.2033,3.2074,3.2083,3.2134,3.2226,3.2108,3.211,3.2127,3.2347,3.2361,3.2379,3.2221,3.2224,3.2227,3.2342,0,3.1507,3.1642,3.1658,3.1778,3.1844,3.1838,3.1904,3.1952,3.1976,3.2034,3.2061,3.2128,3.21,3.2125,3.2175,3.2205,3.227,3.2197,3.228,3.2283,3.2264,3.2399,3.2414,3.252,3.2357,3.236,3.2361,0,3.1659,3.1716,3.1843,3.1899,3.1927,3.1986,3.2051,3.2108,3.2161,3.2175,3.222,3.2222,3.23,3.2255,3.2362,3.2311,3.2346,3.2366,3.237,3.2378,3.2327,3.2409,3.2555,3.257,3.2386,3.2384,3.2382,0,3.1741,3.185,3.194,3.1969,3.2036,3.2078,3.2108,3.2158,3.2199,3.2256,3.2282,3.2347,3.2383,3.2433,3.2453,3.2418,3.2558,3.2515,3.2571,3.257,3.26,3.2598,3.2752,3.2624,3.2624,3.2624,3.2623,0,3.1867,3.1944,3.1977,3.2032,3.2118,3.2135,3.222,3.2248,3.2292,3.2352,3.2351,3.2406,3.2429,3.2488,3.2504,3.2589,3.2606,3.2618,3.2621,3.2618,3.2616,3.2641,3.2634,3.2628,3.2627,3.2626,3.2625,0,3.1973,3.1998,3.2095,3.215,3.2166,3.2227,3.2274,3.2326,3.2349,3.2424,3.2443,3.2479,3.2548,3.2573,3.2658,3.2668,3.2767,3.2764,3.2749,3.2749,3.2803,3.2797,3.2978,3.3002,3.2859,3.286,3.2861,0,3.2051,3.2111,3.2171,3.2211,3.2242,3.2307,3.2348,3.2366,3.2409,3.2473,3.2518,3.2587,3.2643,3.2754,3.2787,3.2852,3.285,3.2909,3.286,3.2854,3.2849,3.2845,3.2851,3.2918,3.2919,3.292,3.2921,0,3.2187,3.2196,3.2256,3.232,3.2369,3.242,3.247,3.2502,3.2527,3.2576,3.2646,3.269,3.2776,3.2844,3.2909,3.2939,3.2935,3.2936,3.2953,3.295,3.2938,3.2944,3.2773,3.2932,3.2931,3.293,3.293,3.2929,3.2282,3.2333,3.2383,3.2449,3.2488,3.2534,3.2586,3.2614,3.2673,3.2744,3.2751,3.2827,3.2877,3.2964,3.2998,3.3057,3.304,3.3064,3.307,3.3075,3.3079,3.2929,3.3069,3.3069,3.3068,3.3068,3.3068,0,3.2416,3.2448,3.2508,3.2577,3.2628,3.2619,3.2673,3.2716,3.2783,3.283,3.2885,3.2965,3.3031,3.3068,3.3134,3.3174,3.3173,3.319,3.3187,3.3194,3.309,3.3069,3.319,3.319,3.319,3.319,3.319,3.319,3.2493,3.2579,3.2594,3.2698,3.273,3.2804,3.2835,3.2877,3.2914,3.3004,3.3058,3.3082,3.3125,3.3193,3.3252,3.3262,3.3285,3.3304,3.3312,3.3214,3.3202,3.319,3.317,3.3309,3.3309,3.341,3.3411,3.3412]}]]